Location: Angwan Shehu
(11.2514°N, 7.4613°E)
Time: 01:29:03
(UTC+00:00)

Tiros 1 - Pass Details

Date: 26 April 2021
Orbit: 630 x 664 km, 48.4° (Epoch: 06 May)

Event Time Altitude Azimuth Distance (km) Brightness Sun altitude
Rises 05:27:40 0° 263° (W) 2,966 9.8 2.6°
Reaches altitude 10° 05:31:36 10° 295° (WNW) 2,046 9.3 3.5°
Maximum altitude 05:33:17 12° 316° (NW) 1,925 9.3 3.9°
Drops below altitude 10° 05:34:59 10° 338° (NNW) 2,037 9.6 4.3°
Sets 05:38:53 0° 10° (N) 2,936 10.9 5.2°
